Time,TemperatureF,DewpointF,PressureIn,WindDirection,WindDirectionDegrees,WindSpeedMPH,WindSpeedGustMPH,Humidity,HourlyPrecipIn,Conditions,Clouds,dailyrainin,SolarRadiationWatts/m^2,SoftwareType,DateUTC
2013-12-27 00:12:00,27.0,23.0,-100.00,North,-999,0.0,2.0,83,0.00,,,0.00,0.000000,,2013-12-27 07:12:00,
2013-12-27 01:11:00,26.0,22.0,-100.00,North,-999,0.0,3.0,86,-99.99,,,0.00,0.000000,,2013-12-27 08:11:00,
2013-12-27 12:22:00,35.0,21.0,-100.00,South,177,2.0,5.0,56,-99.99,,,0.00,321.000000,,2013-12-27 19:22:00,
2013-12-27 12:31:00,35.0,21.0,-100.00,South,177,2.0,5.0,56,-99.99,,,0.00,321.000000,,2013-12-27 19:31:00,
2013-12-27 12:42:00,32.0,22.0,-100.00,SSE,168,5.0,7.0,65,0.00,,,0.00,314.000000,,2013-12-27 19:42:00,
2013-12-27 13:11:00,32.0,22.0,-100.00,SSE,168,5.0,7.0,65,0.00,,,0.00,314.000000,,2013-12-27 20:11:00,
2013-12-27 13:21:00,32.0,22.0,-100.00,SSE,168,5.0,7.0,65,0.00,,,0.00,314.000000,,2013-12-27 20:21:00,
2013-12-27 13:32:00,32.0,22.0,-100.00,SSE,168,5.0,7.0,65,0.00,,,0.00,314.000000,,2013-12-27 20:32:00,
2013-12-27 13:42:00,31.0,21.0,-100.00,South,173,4.0,7.0,67,0.00,,,0.00,285.000000,,2013-12-27 20:42:00,
2013-12-27 14:11:00,31.0,21.0,-100.00,South,173,4.0,7.0,67,0.00,,,0.00,285.000000,,2013-12-27 21:11:00,
2013-12-27 14:22:00,31.0,21.0,-100.00,South,173,4.0,7.0,67,0.00,,,0.00,285.000000,,2013-12-27 21:22:00,
2013-12-27 14:33:00,31.0,21.0,-100.00,South,173,4.0,7.0,67,0.00,,,0.00,285.000000,,2013-12-27 21:33:00,
2013-12-27 14:42:00,33.0,22.0,-100.00,SW,231,2.0,6.0,64,0.00,,,0.00,268.000000,,2013-12-27 21:42:00,
2013-12-27 15:13:00,33.0,22.0,-100.00,SW,231,2.0,6.0,64,0.00,,,0.00,268.000000,,2013-12-27 22:13:00,
2013-12-27 15:23:00,33.0,22.0,-100.00,SW,231,2.0,6.0,64,0.00,,,0.00,268.000000,,2013-12-27 22:23:00,
2013-12-27 15:32:00,33.0,22.0,-100.00,SW,231,2.0,6.0,64,0.00,,,0.00,268.000000,,2013-12-27 22:32:00,
2013-12-27 15:42:00,29.0,21.0,-100.00,South,183,2.0,5.0,73,0.00,,,0.00,171.000000,,2013-12-27 22:42:00,
2013-12-27 16:12:00,29.0,21.0,-100.00,South,183,2.0,5.0,73,0.00,,,0.00,171.000000,,2013-12-27 23:12:00,
2013-12-27 16:21:00,29.0,21.0,-100.00,South,183,2.0,5.0,73,0.00,,,0.00,171.000000,,2013-12-27 23:21:00,
2013-12-27 16:32:00,29.0,21.0,-100.00,South,183,2.0,5.0,73,0.00,,,0.00,171.000000,,2013-12-27 23:32:00,
2013-12-27 16:42:00,28.0,21.0,-100.00,NNW,334,3.0,5.0,75,0.00,,,0.00,62.000000,,2013-12-27 23:42:00,
2013-12-27 17:11:00,28.0,21.0,-100.00,NNW,334,3.0,5.0,75,0.00,,,0.00,62.000000,,2013-12-28 00:11:00,
2013-12-27 17:22:00,28.0,21.0,-100.00,NNW,334,3.0,5.0,75,0.00,,,0.00,62.000000,,2013-12-28 00:22:00,
2013-12-27 17:31:00,28.0,21.0,-100.00,NNW,334,3.0,5.0,75,0.00,,,0.00,62.000000,,2013-12-28 00:31:00,
2013-12-27 17:42:00,28.0,21.0,-100.00,ENE,65,4.0,5.0,75,0.00,,,0.00,6.000000,,2013-12-28 00:42:00,
2013-12-27 18:11:00,28.0,21.0,-100.00,ENE,65,4.0,5.0,75,0.00,,,0.00,6.000000,,2013-12-28 01:11:00,
2013-12-27 18:21:00,28.0,21.0,-100.00,ENE,65,4.0,5.0,75,0.00,,,0.00,6.000000,,2013-12-28 01:21:00,
2013-12-27 18:32:00,28.0,21.0,-100.00,ENE,65,4.0,5.0,75,0.00,,,0.00,6.000000,,2013-12-28 01:32:00,
2013-12-27 18:42:00,27.0,21.0,-100.00,NNW,342,3.0,6.0,78,0.00,,,0.00,0.000000,,2013-12-28 01:42:00,
2013-12-27 19:12:00,27.0,21.0,-100.00,NNW,342,3.0,6.0,78,0.00,,,0.00,0.000000,,2013-12-28 02:12:00,
2013-12-27 19:21:00,27.0,21.0,-100.00,NNW,342,3.0,6.0,78,0.00,,,0.00,0.000000,,2013-12-28 02:21:00,
2013-12-27 19:32:00,27.0,21.0,-100.00,NNW,342,3.0,6.0,78,0.00,,,0.00,0.000000,,2013-12-28 02:32:00,
2013-12-27 19:42:00,26.0,21.0,-100.00,NNE,19,1.0,5.0,82,0.00,,,0.00,0.000000,,2013-12-28 02:42:00,
2013-12-27 20:12:00,26.0,21.0,-100.00,NNE,19,1.0,5.0,82,0.00,,,0.00,0.000000,,2013-12-28 03:12:00,
2013-12-27 20:22:00,26.0,21.0,-100.00,NNE,19,1.0,5.0,82,0.00,,,0.00,0.000000,,2013-12-28 03:22:00,
2013-12-27 20:33:00,26.0,21.0,-100.00,NNE,19,1.0,5.0,82,0.00,,,0.00,0.000000,,2013-12-28 03:33:00,
2013-12-27 20:42:00,25.0,21.0,-100.00,NW,317,4.0,6.0,84,0.00,,,-99.99,0.000000,,2013-12-28 03:42:00,
2013-12-27 21:12:00,25.0,21.0,-100.00,NW,317,4.0,6.0,84,0.00,,,-99.99,0.000000,,2013-12-28 04:12:00,
2013-12-27 21:22:00,25.0,21.0,-100.00,NW,317,4.0,6.0,84,0.00,,,-99.99,0.000000,,2013-12-28 04:22:00,
2013-12-27 21:33:00,25.0,21.0,-100.00,NW,317,4.0,6.0,84,0.00,,,-99.99,0.000000,,2013-12-28 04:33:00,
2013-12-27 21:42:00,26.0,22.0,-100.00,NNW,335,3.0,6.0,83,0.00,,,0.00,0.000000,,2013-12-28 04:42:00,
2013-12-27 22:12:00,26.0,22.0,-100.00,NNW,335,3.0,6.0,83,0.00,,,0.00,0.000000,,2013-12-28 05:12:00,
2013-12-27 22:22:00,26.0,22.0,-100.00,NNW,335,3.0,6.0,83,0.00,,,0.00,0.000000,,2013-12-28 05:22:00,
2013-12-27 22:32:00,26.0,22.0,-100.00,NNW,335,3.0,6.0,83,0.00,,,0.00,0.000000,,2013-12-28 05:32:00,
2013-12-27 22:42:00,29.0,22.0,-100.00,ENE,58,3.0,5.0,76,0.00,,,-99.99,0.000000,,2013-12-28 05:42:00,
2013-12-27 23:12:00,29.0,22.0,-100.00,ENE,58,3.0,5.0,76,0.00,,,-99.99,0.000000,,2013-12-28 06:12:00,
2013-12-27 23:22:00,29.0,22.0,-100.00,ENE,58,3.0,5.0,76,0.00,,,-99.99,0.000000,,2013-12-28 06:22:00,
2013-12-27 23:32:00,29.0,22.0,-100.00,ENE,58,3.0,5.0,76,0.00,,,-99.99,0.000000,,2013-12-28 06:32:00,
2013-12-27 23:42:00,28.0,20.0,-100.00,SSE,156,1.0,4.0,73,0.00,,,0.00,0.000000,,2013-12-28 06:42:00,